[[{"header":{"parameterUnit":"m.s-1","parameterCategory":1,"la1":30.2992,"la2":30.254,"lo1":-89.0895,"lo2":-89.0443,"dy":0.0025,"dx":0.0025,"nx":19,"ny":19,"refTime":"2026-03-14T21:00:00:Z","depth":0,"parameterNumber":2,"parameterNumberName":"U-component_of_WINDS"},"data":[0,0,0,-0.648,-0.6484,-0.671,-0.6711,-0.6981,-0.6983,0,0,0,0,0,0,0,0,0,0,0,-0.6398,-0.64,-0.6479,-0.6485,-0.6709,-0.6711,-0.698,-0.6983,0,0,0,0,0,0,0,0,0,0,0,-0.6398,-0.6399,-0.6401,-0.6485,-0.6709,-0.6711,-0.698,-0.6817,0,0,0,0,0,0,0,0,0,0,-0.6602,-0.6511,-0.6399,-0.6401,-0.6487,-0.6709,-0.6711,-0.681,-0.6827,-0.687,0,-0.69,0,-0.6945,-0.7,-0.7,0,0,0,-0.6497,-0.6497,-0.657,-0.6401,-0.6488,-0.6709,-0.6611,-0.682,-0.684,-0.6893,-0.6904,-0.6915,-0.695,-0.7001,-0.7002,-0.7196,-0.7196,0,0,-0.6485,-0.6432,-0.6556,-0.6582,-0.6542,-0.6604,-0.6618,-0.6832,-0.6842,-0.6905,-0.6921,-0.6954,-0.7003,-0.7005,-0.7196,-0.7196,0,0,0,-0.6441,-0.6423,-0.6492,-0.657,-0.6612,-0.661,-0.6627,-0.6833,-0.686,-0.6925,-0.6957,-0.7004,-0.7007,-0.7195,-0.7196,-0.7158,0,0,0,-0.6434,-0.6397,-0.6485,-0.6456,-0.6607,-0.6724,-0.6622,-0.6845,-0.6871,-0.6956,-0.7004,-0.701,-0.7195,-0.7196,-0.7158,-0.715,0,0,0,-0.6389,-0.6392,-0.6419,-0.6452,-0.6547,-0.6722,-0.6762,-0.6851,-0.689,-0.7001,-0.701,-0.7195,-0.7195,-0.7159,-0.715,-0.7184,0,0,0,-0.6327,-0.6385,-0.6417,-0.6496,-0.6544,-0.6696,-0.6761,-0.6878,-0.6968,-0.7005,-0.7195,-0.7196,-0.7159,-0.7151,-0.7184,-0.7201,-0.7204,0,0,-0.6371,-0.6389,-0.6439,-0.6474,-0.6606,-0.6666,-0.6795,-0.693,-0.6991,-0.7125,-0.7131,-0.7158,-0.715,-0.7184,-0.7238,-0.7239,0,0,0,-0.6435,-0.647,-0.6517,-0.6598,-0.67,-0.6787,-0.6907,-0.6958,-0.7073,-0.7047,-0.7182,-0.7179,-0.7201,-0.7212,-0.7213,-0.7235,-0.7199,-0.7199,-0.7199,-0.6423,-0.6494,-0.6582,-0.668,-0.6759,-0.6881,-0.6953,-0.7042,-0.7095,-0.7125,-0.7165,-0.7188,-0.7199,-0.7201,-0.7223,-0.7181,-0.7181,-0.7181,-0.7181,-0.6493,-0.6554,-0.6619,-0.6727,-0.6804,-0.6898,-0.7019,-0.7053,-0.7154,-0.7165,-0.7188,-0.7192,-0.72,-0.7223,-0.7179,-0.7179,-0.718,-0.718,-0.718,-0.6492,-0.6533,-0.6591,-0.6715,-0.6804,-0.6904,-0.6996,-0.7064,-0.713,-0.7153,-0.7202,-0.7203,-0.7212,-0.7171,-0.7172,-0.7172,-0.7172,-0.7172,-0.7172,-0.6467,-0.6533,-0.66,-0.6711,-0.6772,-0.6862,-0.6985,-0.7049,-0.7137,-0.718,-0.7181,-0.723,-0.7187,-0.7173,-0.7173,-0.7173,-0.7173,-0.7173,-0.7173,-0.651,-0.6511,-0.6613,-0.6674,-0.6811,-0.6895,-0.698,-0.7103,-0.7166,-0.721,-0.7255,-0.7211,-0.7236,-0.7235,-0.7225,-0.7238,-0.7238,-0.7238,-0.7238,-0.6508,-0.6526,-0.6646,-0.6738,-0.6837,-0.6924,-0.7041,-0.7139,-0.7241,-0.7285,-0.7294,-0.7286,-0.7283,-0.7309,-0.7307,-0.7299,-0.7331,-0.7331,-0.7331,-0.6539,-0.6569,-0.6653,-0.6748,-0.6861,-0.6957,-0.7069,-0.7176,-0.7293,-0.7336,-0.7321,-0.7317,-0.7306,-0.7299,-0.734,-0.7335,-0.7321,0,0]},{"header":{"parameterUnit":"m.s-1","parameterCategory":1,"la1":30.2992,"la2":30.254,"lo1":-89.0895,"lo2":-89.0443,"dy":0.0025,"dx":0.0025,"nx":19,"ny":19,"refTime":"2026-03-14T21:00:00:Z","depth":0,"parameterNumber":3,"parameterNumberName":"V-component_of_WINDS"},"data":[0,0,0,6.2642,6.2643,6.2724,6.2725,6.2803,6.2804,0,0,0,0,0,0,0,0,0,0,0,6.2604,6.2604,6.2642,6.2643,6.2724,6.2725,6.2803,6.2804,0,0,0,0,0,0,0,0,0,0,0,6.2604,6.2604,6.2604,6.2644,6.2724,6.2725,6.2803,6.275,0,0,0,0,0,0,0,0,0,0,6.2676,6.2628,6.2604,6.2604,6.2644,6.2724,6.2725,6.2748,6.2754,6.2756,0,6.2757,0,6.2782,6.2808,6.2808,0,0,0,6.2653,6.2623,6.2658,6.2605,6.2645,6.2724,6.269,6.2752,6.2758,6.2763,6.2758,6.2762,6.2783,6.2808,6.2808,6.28,6.2799,0,0,6.2648,6.2611,6.2654,6.2661,6.265,6.2688,6.2693,6.2756,6.2746,6.2759,6.2764,6.2784,6.2808,6.2809,6.28,6.2799,0,0,0,6.2629,6.2607,6.2641,6.2658,6.2674,6.269,6.2696,6.2744,6.2758,6.2765,6.2785,6.2809,6.2809,6.2801,6.28,6.2741,0,0,0,6.2627,6.2596,6.2638,6.2616,6.2673,6.271,6.2682,6.2754,6.2762,6.2785,6.2809,6.281,6.2801,6.28,6.2744,6.2719,0,0,0,6.2603,6.2594,6.2601,6.2614,6.2648,6.271,6.2729,6.2756,6.2774,6.2808,6.281,6.2802,6.28,6.2747,6.2723,6.2707,0,0,0,6.2567,6.2545,6.2599,6.2583,6.2647,6.2675,6.2729,6.275,6.2772,6.2809,6.2801,6.28,6.2748,6.2726,6.2709,6.2686,6.2673,0,0,6.2518,6.2538,6.2532,6.2583,6.2592,6.2665,6.2665,6.2719,6.2755,6.2782,6.2782,6.2743,6.2724,6.2707,6.2614,6.2603,0,0,0,6.2504,6.2499,6.2509,6.2531,6.2574,6.2609,6.2668,6.2689,6.2715,6.2762,6.2734,6.2724,6.2716,6.2706,6.2697,6.2692,6.2794,6.2794,6.2794,6.2379,6.243,6.2424,6.2485,6.2504,6.2568,6.2588,6.2627,6.2668,6.2661,6.2669,6.2607,6.2594,6.2588,6.2583,6.2662,6.2662,6.2661,6.2661,6.2313,6.2314,6.2375,6.2391,6.2444,6.2457,6.2518,6.2548,6.2567,6.2604,6.26,6.2636,6.2575,6.2573,6.2657,6.2658,6.2658,6.2659,6.2659,6.2236,6.2246,6.2274,6.2313,6.2336,6.2399,6.2415,6.2463,6.2507,6.2503,6.2517,6.2518,6.2524,6.2506,6.2506,6.2506,6.2506,6.2506,6.2506,6.2145,6.2179,6.2189,6.2236,6.2258,6.2292,6.2358,6.238,6.2416,6.2449,6.2449,6.2492,6.256,6.2576,6.2502,6.2503,6.2503,6.2504,6.2504,6.2057,6.2086,6.21,6.2122,6.2183,6.2204,6.2267,6.2307,6.2332,6.2339,6.2385,6.2428,6.245,6.2457,6.2471,6.2374,6.2374,6.2374,6.2374,6.1992,6.2009,6.2037,6.207,6.2107,6.2166,6.218,6.2231,6.2288,6.2307,6.2328,6.235,6.2356,6.2375,6.2384,6.2397,6.2284,6.2284,6.2284,6.1941,6.1965,6.1968,6.2028,6.208,6.2123,6.2139,6.2172,6.2242,6.2281,6.2322,6.2326,6.2363,6.2372,6.2409,6.2422,6.2447,0,0]}]]